This is the latest recevied weather packets stored in our database for station/object W2JGA. If no packets are shown the sender has not sent any weather packets the latest 10 day(s).
| Time | Temp. | Humidity | Pressure | Rain* | Wind** | Luminosity | Snow |
|---|---|---|---|---|---|---|---|
| 1777236798 | 25° C | 33% | 1013.2 hPa | 0 mm | - | 777 W/m² | - |
| 1777236497 | 24.44° C | 35% | 1012.9 hPa | 0 mm | - | 760 W/m² | - |
| 1777236189 | 23.33° C | 36% | 1013.6 hPa | 0 mm | - | 760 W/m² | - |
| 1777235884 | 23.89° C | 35% | 1013.2 hPa | 0 mm | - | 137 W/m² | - |
| 1777235581 | 24.44° C | 36% | 1013.2 hPa | 0 mm | - | 676 W/m² | - |
| 1777235277 | 24.44° C | 35% | 1013.6 hPa | 0 mm | - | 675 W/m² | - |
| 1777234974 | 23.89° C | 37% | 1013.6 hPa | 0 mm | - | 719 W/m² | - |
| 1777234670 | 24.44° C | 37% | 1013.2 hPa | 0 mm | - | 762 W/m² | - |
| 1777234365 | 23.89° C | 37% | 1013.6 hPa | 0 mm | - | 743 W/m² | - |
| 1777234061 | 23.89° C | 37% | 1013.6 hPa | 0 mm | - | 260 W/m² | - |
| 1777233757 | 23.33° C | 38% | 1013.6 hPa | 0 mm | - | 874 W/m² | - |
| 1777233453 | 23.89° C | 37% | 1013.6 hPa | 0 mm | - | 868 W/m² | - |
| 1777233152 | 23.89° C | 38% | 1013.9 hPa | 0 mm | - | 809 W/m² | - |
| 1777232848 | 23.89° C | 39% | 1013.6 hPa | 0 mm | - | 800 W/m² | - |
| 1777232547 | 23.33° C | 39% | 1013.9 hPa | 0 mm | - | 837 W/m² | - |
| 1777232245 | 23.33° C | 39% | 1013.9 hPa | 0 mm | - | 820 W/m² | - |
| 1777231940 | 23.33° C | 39% | 1013.9 hPa | 0 mm | - | 816 W/m² | - |
| 1777231638 | 22.78° C | 40% | 1013.9 hPa | 0 mm | - | 810 W/m² | - |
| 1777231335 | 23.89° C | 40% | 1014.3 hPa | 0 mm | - | 809 W/m² | - |
| 1777231030 | 22.78° C | 40% | 1013.9 hPa | 0 mm | - | 771 W/m² | - |
| 1777230727 | 22.78° C | 42% | 1013.9 hPa | 0 mm | - | 493 W/m² | - |
| 1777230427 | 23.33° C | 40% | 1013.9 hPa | 0 mm | - | 851 W/m² | - |
| 1777230123 | 23.33° C | 40% | 1014.3 hPa | 0 mm | - | 822 W/m² | - |
| 1777229820 | 22.78° C | 39% | 1013.9 hPa | 0 mm | - | 745 W/m² | - |
| 1777229517 | 22.22° C | 41% | 1014.3 hPa | 0 mm | - | 185 W/m² | - |
* Rain latest hour (hover to see other rain measurements)
** Current wind speed in m/s (hover to see current wind gust speed)